Location: ??????????
(48.5701°N, 37.7703°E)
Time: 19:20:04
(UTC+00:00)

Cosmos 1378 Rocket - Pass Details

Date: 14 July 2020
Orbit: 602 x 626 km, 82.5° (Epoch: 11 August)

Event Time Altitude Azimuth Distance (km) Brightness Sun altitude
Rises 00:38:58 0° 346° (NNW) 2,900 7.5 -8.7°
Reaches altitude 10° 00:41:14 10° 341° (NNW) 1,994 6.6 -8.4°
Maximum altitude 00:45:31 52° 266° (W) 777 3.8 -7.9°
Drops below altitude 10° 00:49:48 10° 190° (S) 1,990 5.7 -7.4°
Enters shadow 00:51:30 - 186° (S) 2,668 6.3 -7.2°
